Overview Statistics Trail Chart Weather Telemetry Raw packets
 

This is the latest recevied weather packets stored in our database for station/object IW2NTF-3. If no packets are shown the sender has not sent any weather packets the latest 10 day(s).

<< 534 535 536 537 538 539 540 >>
Time Temp. Humidity Pressure Rain* Wind** Luminosity Snow
1787930113 25.56° C 74% 1012.5 hPa 0 mm - 62 W/m² -
1787930043 25.56° C 74% 1012.5 hPa 0 mm - 58 W/m² -
1787929983 25.56° C 73% 1012.5 hPa 0 mm - 54 W/m² -
1787929923 25.56° C 72% 1012.5 hPa 0 mm - 54 W/m² -
1787929864 26.11° C 72% 1012.4 hPa 0 mm - 56 W/m² -
1787929804 26.11° C 72% 1012.3 hPa 0 mm - 56 W/m² -
1787929743 26.11° C 71% 1012.3 hPa 0 mm - 63 W/m² -
1787929683 26.11° C 71% 1013.1 hPa 0 mm - 65 W/m² -
1787929626 26.11° C 70% 1013.8 hPa 0 mm - 62 W/m² -
1787929563 26.11° C 68% 1013.8 hPa 0 mm - 51 W/m² -
1787929503 26.67° C 68% 1013.9 hPa 0 mm - 40 W/m² -
1787929443 26.67° C 68% 1013.9 hPa 0 mm - 37 W/m² -
1787929383 26.67° C 67% 1013.7 hPa 0 mm - 53 W/m² -
1787929323 26.67° C 67% 1013.3 hPa 0 mm - 62 W/m² -
1787929263 26.67° C 67% 1013.3 hPa 0 mm - 69 W/m² -
1787929206 26.67° C 67% 1013.2 hPa 0 mm - 76 W/m² -
1787929143 26.67° C 68% 1013.2 hPa 0 mm - 76 W/m² -
1787929083 26.67° C 68% 1012.8 hPa 0 mm - 76 W/m² -
1787929023 26.67° C 68% 1012.5 hPa 0 mm - 81 W/m² -
1787928963 26.67° C 67% 1012.5 hPa 0 mm - 84 W/m² -
1787928903 26.67° C 67% 1012.5 hPa 0 mm - 86 W/m² -
1787928844 26.67° C 67% 1012.5 hPa 0 mm - 88 W/m² -
1787928783 26.67° C 67% 1012.4 hPa 0 mm - 90 W/m² -
1787928723 27.22° C 67% 1012.3 hPa 0 mm - 91 W/m² -
1787928663 27.22° C 66% 1012.3 hPa 0 mm - 100 W/m² -

* Rain latest hour (hover to see other rain measurements)
** Current wind speed in m/s (hover to see current wind gust speed)